Weather History for Clarksville, TN

Change the Weather History Date:

Sunday, June 30, 2013

  Actual Average Record
Temperature  
Mean Temperature 70 °F -  
Max Temperature 81 °F - 108 °F (1952)
Min Temperature 59 °F - 53 °F (1950)
Degree Days  
Heating Degree Days 0    
Month to date heating degree days 0  
Since 1 July heating degree days 3952  
Cooling Degree Days 5    
Month to date cooling degree days 305  
Growing Degree Days 20 (Base 50)    
Moisture  
Dew Point 62 °F    
Average Humidity 77    
Maximum Humidity 100    
Minimum Humidity 54    
Precipitation  
Precipitation 0.00 in - 1.00 in (1976)
Month to date precipitation 2.32  
Sea Level Pressure  
Sea Level Pressure 29.75 in    
Wind  
Wind Speed 4 mph (NW)    
Max Wind Speed 17 mph    
Max Gust Speed 22 mph    
Visibility 10 miles    
Events      
T = Trace of Precipitation, MM = Missing Value Source: NWS Daily Summary

Daily Weather History Graph

Daily Weather History Graph

Search for Another Location

Airport:

Trip Planner

Search our weather history database for the weather conditions in past years. The results will help you decide how hot, cold, wet, or windy it might be!

Date:

Astronomy

Jun. 30, 2013 Rise Set
Actual Time 5:34 AM CDT 8:12 PM CDT
Civil Twilight 5:03 AM CDT 8:42 PM CDT
Nautical Twilight 4:26 AM CDT 9:20 PM CDT
Astronomical Twilight 3:43 AM CDT 10:02 PM CDT
Moon 12:25 AM CDT (6/30) 1:33 PM CDT (6/30)
Length of Visible Light 15h 38m
Length of Day
14h 37m
Last Quarter, 45% of the Moon is Illuminated
Jun 30
Last Quarter
Jul 8
New
Jul 15
First Quarter
Jul 22
Full
Jul 29
Last Quarter

Hourly Weather History & Observations

Time (CDT) Temp. Heat Index Dew Point Humidity Pressure Visibility Wind Dir Wind Speed Gust Speed Precip Events Conditions
12:52 AM 64.0 °F - 61.0 °F 90% 29.70 in 10.0 mi West 3.5 mph - N/A   Partly Cloudy
1:52 AM 63.0 °F - 60.1 °F 90% 29.70 in 10.0 mi Calm Calm - N/A   Clear
2:52 AM 63.0 °F - 61.0 °F 93% 29.69 in 10.0 mi Calm Calm - N/A   Clear
3:52 AM 61.0 °F - 60.1 °F 97% 29.69 in 9.0 mi Calm Calm - N/A   Clear
4:52 AM 60.1 °F - 57.9 °F 93% 29.70 in 10.0 mi Calm Calm - N/A   Clear
5:52 AM 60.1 °F - 59.0 °F 96% 29.73 in 10.0 mi SSW 3.5 mph - N/A   Clear
6:52 AM 63.0 °F - 62.1 °F 97% 29.75 in 10.0 mi Calm Calm - N/A   Partly Cloudy
7:52 AM 66.0 °F - 62.1 °F 87% 29.75 in 10.0 mi WNW 3.5 mph - N/A   Overcast
8:52 AM 68.0 °F - 63.0 °F 84% 29.77 in 10.0 mi Calm Calm - N/A   Overcast
9:45 AM 69.8 °F - 62.6 °F 78% 29.79 in 10.0 mi Calm Calm - N/A   Overcast
9:52 AM 69.1 °F - 63.0 °F 81% 29.78 in 10.0 mi Calm Calm - N/A   Overcast
10:52 AM 73.0 °F - 62.1 °F 68% 29.78 in 10.0 mi Variable 3.5 mph - N/A   Mostly Cloudy
11:52 AM 77.0 °F - 63.0 °F 62% 29.77 in 10.0 mi NW 8.1 mph - N/A   Scattered Clouds
12:52 PM 78.1 °F - 63.0 °F 60% 29.76 in 10.0 mi WNW 8.1 mph - N/A   Clear
1:52 PM 75.9 °F - 62.1 °F 62% 29.75 in 10.0 mi NNW 3.5 mph - N/A   Mostly Cloudy
2:52 PM 78.1 °F - 62.1 °F 58% 29.75 in 10.0 mi Calm Calm - N/A   Overcast
3:52 PM 79.0 °F - 61.0 °F 54% 29.75 in 10.0 mi West 8.1 mph - N/A   Scattered Clouds
4:52 PM 80.1 °F 81.2 °F 62.1 °F 54% 29.75 in 10.0 mi West 10.4 mph - N/A   Mostly Cloudy
5:20 PM 77.0 °F - 62.6 °F 61% 29.76 in 10.0 mi North 12.7 mph - N/A   Mostly Cloudy
5:52 PM 75.9 °F - 63.0 °F 64% 29.75 in 10.0 mi North 6.9 mph - N/A   Scattered Clouds
6:52 PM 73.0 °F - 64.0 °F 73% 29.77 in 10.0 mi North 5.8 mph - N/A   Clear
7:52 PM 72.0 °F - 63.0 °F 73% 29.78 in 10.0 mi North 5.8 mph - N/A   Scattered Clouds
8:52 PM 69.1 °F - 63.0 °F 81% 29.78 in 10.0 mi NNW 3.5 mph - N/A   Scattered Clouds
9:52 PM 68.0 °F - 64.0 °F 87% 29.80 in 10.0 mi NNW 5.8 mph - N/A   Mostly Cloudy
10:52 PM 68.0 °F - 64.0 °F 87% 29.81 in 10.0 mi NNW 4.6 mph - N/A   Overcast
11:52 PM 68.0 °F - 64.0 °F 87% 29.80 in 10.0 mi NNW 5.8 mph - N/A   Clear